リニア彗星

C/2011 F1 ( LINEAR )

English version
Home page
Updated on April 29, 2013

---------------------------------------------------------------------

・ プロフィール

発見日 2011年3月17日
発見光度 18.3等
発見者 Lincoln Laboratory Near-Earth Asteroid Research project

・ 写真集

・ 軌道要素

Epoch 2013 Jan. 28.0 TT = JDT 2456320.5
T 2013 Jan. 8.00389 TT                                  MPC
q   1.8191723            (2000.0)            P               Q
z  +0.0000507      Peri.  192.54441     +0.03596522     +0.55370195
                   Node    85.11504     -0.82952700     +0.48078620
e   0.9999078      Incl.   56.61279     -0.55730734     -0.67989616
From 4382 observations 2011 Mar. 17-2013 Apr. 2, mean residual 0".5.
     Nongravitational parameters A1 = +10.07, A2 = -3.2514.

・ 星図

・ 光度変化

        m1 = 4.0 + 5 logΔ + 11.0 log r  [ ,0]  (              〜2013年 1月 8日)
        m1 = 8.5 + 5 logΔ + 11.0 log r  [0, ]  (2013年 1月 8日〜              )

        ※ 灰色の曲線は、m1 = 4.0 + 5 logΔ + 11.0 log r の光度曲線です。

---------------------------------------------------------------------

軌道要素はM.P.E.C. 2013-G31に掲載されたものです。
星図はステラナビゲータ Ver.8 (アストロアーツ) で作成したものです。
光度グラフはComet for Windowsで作成したものです。

---------------------------------------------------------------------

Copyright(C) Seiichi Yoshida (comet@aerith.net). All rights reserved.